Zurück zum Katalog

STARLINK-11139

AktivKommunikationVLEO
NORAD 60402·PAYLOAD·🇺🇸 United States

Gestartet Aug 10, 2024 von Cape Canaveral Space Force Station

Loading…

Nächste Überflüge (nächste 24 Stunden)

TLE

AktuellSource: CelesTrak SupGP

Epoche: Sep 14, 2026, 21:06 UTC

1 60402C 24141E   26257.87965278  .00066808  00000+0  55036-3 0  2574
2 60402  53.1569 233.2999 0001189  88.8333 203.8320 15.69674456    14

Verfolge STARLINK-11139 in Echtzeit mit AllMySat

Download on the App Store